RH
85 88 89 87 90 92 91 94 95 93 93 92 91 89 87 82 79 78 78 78 79 82 82 82 82 73 67 58 50 51 41 29 24 23 25 24 31 41 44 46 48 53 57 59 58 56 56 56 56 52 49 46 47 55 57 55 51 44 44 45 53 61
81 85 89 88 89 90 91 92 94 95 92 90 88 84 82 79 77 77 76 75 79 88 87 88 92 87 87 77 58 49 43 38 28 22 25 29 35 40 42 45 47 51 54 57 58 59 59 57 55 51 50 46 43 57 62 54 53 47 44 50 57 62
82 86 88 89 88 86 85 83 87 94 90 87 87 83 81 82 81 78 76 75 76 79 78 82 88 91 93 83 69 57 46 46 41 30 26 26 31 36 39 41 45 48 50 53 53 65 76 69 62 55 51 48 42 54 66 57 52 48 46 51 54 57
85 86 87 88 83 79 80 76 80 90 90 88 89 85 84 86 83 79 78 76 73 69 69 74 76 82 87 78 71 62 47 45 47 45 39 31 29 30 34 35 36 39 43 45 44 61 80 75 71 68 60 57 52 57 65 57 52 50 47 50 52 54
85 84 85 83 76 75 76 73 74 82 87 88 88 84 81 81 80 76 74 73 70 64 65 65 58 65 79 79 75 65 56 55 58 62 57 54 54 49 52 52 44 42 43 43 42 52 66 66 68 69 63 60 59 63 62 54 51 48 47 50 54 57
82 81 81 77 74 75 72 69 69 71 79 81 78 75 75 76 77 73 70 69 66 63 67 66 58 64 72 74 75 71 69 70 73 76 66 67 74 67 66 68 62 58 53 50 50 55 59 58 59 58 57 57 59 62 58 51 50 46 47 53 55 58
78 78 77 72 71 73 71 68 65 65 71 70 67 68 70 72 73 70 67 66 63 66 71 69 66 70 67 65 68 72 76 73 72 76 68 63 67 66 65 66 66 63 57 54 53 54 53 51 53 52 49 51 54 56 55 52 49 47 48 53 58 61
75 73 72 69 66 66 66 64 61 64 67 64 62 62 63 64 66 67 67 65 65 71 74 71 73 74 66 66 70 71 73 70 67 69 69 65 62 64 64 60 60 59 57 55 52 49 46 43 48 51 49 49 49 49 53 54 51 49 50 55 61 64
69 67 66 64 59 58 61 62 61 64 65 62 59 58 58 60 63 66 68 69 73 77 75 73 79 76 66 69 75 74 72 71 71 71 72 73 69 69 67 62 61 58 57 56 54 51 47 43 44 49 51 54 53 48 48 52 53 54 53 57 62 65
65 64 61 58 57 59 64 64 61 64 64 60 58 58 59 62 65 68 70 73 79 80 77 78 81 78 72 73 77 76 75 74 74 74 75 75 73 72 69 66 66 65 64 64 61 58 56 52 49 48 48 49 53 52 49 49 52 56 57 59 63 67
60 60 57 57 58 63 68 65 61 63 61 60 62 62 63 66 68 70 74 78 81 82 80 80 80 77 75 77 79 76 74 74 74 74 71 70 71 71 71 70 69 70 72 70 66 65 63 60 55 54 52 49 50 52 54 53 53 58 62 63 64 68
57 55 55 58 60 62 66 64 62 62 60 63 66 66 69 71 73 76 80 83 84 84 80 78 79 77 73 76 80 79 78 77 76 75 71 73 76 76 77 77 75 74 74 73 71 70 68 65 61 58 57 55 52 51 53 56 58 59 63 68 68 69
56 56 55 58 61 63 64 64 65 66 66 71 73 75 80 81 84 85 85 85 83 82 80 79 80 79 77 79 82 83 83 79 77 79 78 81 83 80 80 79 79 77 75 77 76 73 72 71 69 64 61 60 58 57 55 55 58 60 66 72 72 73
60 60 59 60 63 63 66 69 72 74 77 81 82 85 88 87 87 86 84 83 82 83 82 83 82 80 79 80 82 83 83 81 80 82 83 84 85 83 82 81 81 79 78 79 78 76 75 73 72 70 67 66 64 63 60 59 59 60 66 71 73 74
65 64 63 64 67 69 73 77 81 84 87 88 87 86 85 83 83 86 87 83 84 86 85 85 85 82 81 79 79 81 81 82 82 82 84 85 84 81 79 80 80 79 78 78 77 76 75 74 74 74 73 73 71 68 66 65 64 62 64 68 73 74
69 68 70 72 76 79 81 84 87 89 89 87 86 82 79 79 81 86 87 83 86 89 87 86 85 83 84 82 81 81 81 83 82 81 84 83 82 79 76 75 75 75 75 74 74 72 71 71 72 72 73 74 73 72 72 71 71 69 69 71 74 74
78 82 85 86 86 84 85 88 90 91 88 85 86 83 80 80 83 85 84 83 86 87 85 84 86 86 83 81 81 80 81 84 83 82 84 82 79 77 74 72 73 74 75 74 75 74 72 72 73 72 73 74 74 75 75 75 75 74 75 76 77 75
86 90 92 92 90 88 91 94 92 87 83 86 91 88 86 85 84 86 88 86 85 86 87 86 88 87 84 82 82 84 83 83 85 86 85 81 77 73 72 72 73 74 75 76 76 76 75 75 76 76 74 75 75 75 76 76 76 76 77 79 80 79
89 92 95 93 89 88 92 96 94 86 82 91 95 88 86 84 82 85 87 85 87 88 88 89 88 86 85 85 84 86 85 83 88 87 82 79 76 73 72 73 75 76 76 78 78 77 76 76 76 74 73 75 75 74 74 76 78 79 79 80 81 80
96 97 96 92 88 88 89 91 92 91 91 95 92 85 85 83 83 88 89 88 91 90 87 88 88 88 89 87 84 84 83 84 86 82 79 79 77 75 74 76 77 78 78 79 78 77 76 77 77 74 72 71 72 71 71 72 74 75 78 81 80 80
99 92 88 88 90 93 93 93 93 94 95 93 91 91 90 88 87 91 94 93 92 89 87 87 88 89 90 90 87 84 82 83 81 78 79 78 75 74 73 76 78 80 81 79 77 77 77 77 77 76 75 73 70 68 66 67 69 73 78 78 77 80
92 81 83 90 93 94 93 96 96 91 90 90 90 92 93 94 92 91 91 89 86 85 85 85 85 86 89 90 88 85 83 82 80 79 79 78 75 74 72 74 78 81 83 81 78 76 77 78 79 78 79 79 75 67 63 66 71 76 77 73 72 76
86 84 91 93 90 88 89 94 91 86 86 86 85 87 90 90 88 89 88 84 83 84 84 84 82 84 88 88 87 85 82 80 81 80 79 79 76 75 75 75 77 80 81 81 79 76 75 77 80 82 82 82 80 75 71 71 72 72 71 69 70 70
86 95 96 91 87 87 89 88 85 85 86 85 84 84 84 81 82 87 85 82 84 84 85 84 83 86 88 88 86 84 83 82 83 83 81 80 78 78 79 78 79 81 81 82 82 80 77 75 77 84 87 85 80 79 80 78 77 71 67 71 71 68
90 99 95 88 90 92 91 88 87 88 87 87 87 82 81 83 85 88 86 84 85 85 86 85 85 87 87 88 88 87 88 87 87 86 83 82 82 81 81 82 83 84 85 87 87 85 81 77 75 80 88 90 87 86 84 82 85 78 68 70 70 68
95 97 92 86 89 93 93 91 91 90 88 88 87 83 84 87 87 89 90 87 84 85 87 86 86 86 85 88 90 90 89 89 89 85 82 83 84 84 84 85 85 85 87 87 88 88 86 83 81 79 83 89 92 93 91 89 92 88 76 71 67 67
92 89 88 85 86 91 89 87 87 85 86 87 87 88 88 86 86 89 90 87 84 84 86 87 87 86 85 87 88 89 87 87 87 83 80 82 83 83 83 84 84 85 85 85 86 88 88 87 86 84 84 86 87 90 92 93 94 95 91 82 73 70
88 85 86 86 87 88 84 83 84 82 85 88 87 86 86 85 87 88 87 86 85 84 85 87 87 87 87 87 87 87 85 85 86 84 81 81 83 83 82 82 82 82 83 84 85 86 88 88 86 86 85 84 83 83 84 86 88 93 97 95 84 75
89 84 86 86 86 86 82 81 82 80 83 87 84 82 85 89 87 86 86 85 86 87 87 87 86 86 89 90 87 85 85 86 86 86 83 83 83 82 82 82 81 82 82 82 83 84 86 86 86 85 84 83 81 80 79 78 79 83 89 93 90 82
87 85 85 84 84 86 84 81 81 82 83 83 81 83 87 89 85 84 86 86 87 87 87 88 87 86 89 91 87 85 85 85 84 84 83 82 80 79 81 80 78 81 81 82 84 85 85 85 85 84 83 82 81 79 79 78 77 78 80 85 89 86
87 86 85 84 83 85 85 84 84 85 86 84 84 86 86 85 83 83 85 85 85 84 83 84 85 85 88 89 87 84 84 83 82 83 82 82 81 80 80 78 78 81 83 85 87 86 86 87 88 88 85 84 83 82 82 80 79 78 78 79 84 84
89 86 85 85 83 82 83 85 85 84 85 86 87 85 82 81 80 80 81 80 79 79 80 81 82 84 87 87 86 83 82 83 82 83 83 83 82 81 80 79 80 82 83 86 87 86 87 89 89 90 89 88 86 85 84 83 81 80 79 78 80 79
87 83 82 82 81 82 83 84 85 84 85 85 83 82 79 77 78 78 78 76 75 77 79 81 83 85 85 85 84 83 83 83 83 83 84 83 82 81 80 79 79 80 82 85 84 83 85 86 86 86 88 88 87 86 85 84 83 82 81 80 80 80
82 80 80 81 81 81 82 81 82 83 83 82 80 79 78 77 77 76 77 78 78 78 81 83 84 84 82 82 82 82 82 84 84 83 82 80 81 81 80 79 77 77 80 81 79 78 79 81 81 82 83 84 84 83 82 82 82 81 81 81 82 83
79 78 78 80 80 79 80 79 78 79 80 79 79 79 79 79 78 77 78 80 80 81 82 82 82 81 81 81 81 80 80 82 81 80 79 78 79 80 79 78 75 76 79 80 76 73 74 75 76 78 78 78 78 77 78 79 79 80 81 82 83 83
77 78 79 79 80 80 79 78 77 77 77 77 78 79 80 81 81 79 78 79 80 81 80 80 79 80 80 81 80 78 78 78 78 78 78 78 78 79 78 76 75 76 77 77 74 72 72 71 71 72 72 72 72 74 77 78 78 80 81 82 84 84
76 78 79 79 79 80 79 78 78 77 77 76 77 79 80 82 82 81 79 79 79 78 78 79 80 79 78 77 77 75 74 75 75 76 77 77 77 77 77 76 76 76 74 72 71 71 70 69 68 69 69 70 72 75 77 78 79 81 81 82 83 83
Wind_Speed
20 19 19 19 17 16 17 17 15 15 15 15 14 13 12 11 10 9 8 6 4 5 5 6 5 4 4 4 4 3 3 5 5 6 6 7 8 7 6 5 4 2 1 0 1 1 3 4 4 3 3 2 1 2 4 6 6 4 2 5 5 4
21 20 20 20 18 16 17 16 14 15 15 15 14 13 12 10 10 9 8 6 5 6 4 4 4 3 2 2 2 2 2 3 4 4 5 6 7 7 6 5 4 3 2 2 3 4 4 5 4 3 3 2 2 2 3 4 4 5 2 5 6 4
22 22 20 19 18 18 18 16 14 14 14 15 14 12 11 10 10 8 8 5 5 6 5 5 4 4 4 1 2 1 1 2 3 3 3 4 5 6 6 6 5 5 5 5 5 4 5 8 7 5 5 5 6 4 3 4 6 5 3 4 5 5
24 24 21 18 19 20 19 17 16 14 13 14 13 12 11 10 10 8 7 5 4 6 7 5 4 5 5 2 1 0 0 0 1 3 2 1 2 3 3 4 6 7 7 8 8 6 6 11 11 9 8 8 8 5 4 7 8 8 6 6 7 6
26 24 21 19 20 20 19 18 18 15 13 15 13 12 11 10 10 9 9 6 5 8 7 4 4 5 5 4 2 1 1 1 1 2 2 1 1 1 3 5 5 5 6 8 9 8 8 12 13 12 13 10 8 6 8 10 10 11 8 7 8 7
24 23 21 19 19 19 20 19 18 16 14 14 14 12 12 11 10 10 9 7 6 8 8 4 3 4 4 6 7 5 2 1 1 1 2 2 3 5 6 7 7 6 5 7 8 9 9 12 13 12 14 12 8 8 10 11 11 11 9 9 9 9
22 22 19 18 19 19 20 19 17 18 15 14 15 13 13 12 10 10 9 7 7 7 6 4 4 4 3 5 7 5 4 3 2 4 3 2 5 6 7 9 10 8 7 8 8 9 11 12 12 12 14 14 11 10 11 11 12 11 9 10 10 9
21 21 20 19 18 17 18 18 16 17 14 13 15 13 13 12 10 10 9 8 9 7 5 5 5 4 6 7 6 4 4 5 4 6 6 4 6 5 5 7 8 9 9 10 10 11 12 12 12 13 14 13 12 13 13 13 14 12 10 10 10 10
21 19 19 18 16 16 16 16 16 15 14 13 13 12 12 11 10 10 10 9 8 7 6 6 7 6 8 7 6 5 5 5 4 6 5 4 6 6 7 7 7 8 9 10 12 12 12 12 13 13 13 13 13 14 14 13 14 14 12 11 12 11
20 18 18 16 15 16 15 15 15 15 15 14 12 13 12 11 10 9 10 9 8 7 7 7 7 7 8 6 5 7 7 5 5 6 5 6 8 8 8 7 8 8 9 11 13 13 12 12 14 13 14 14 14 15 14 13 13 13 13 13 14 13
18 18 17 15 15 15 14 15 13 13 15 13 12 13 13 11 10 10 10 9 9 8 8 7 7 7 7 6 6 7 7 6 7 7 7 7 7 7 7 7 7 9 10 12 13 13 12 13 14 14 14 15 15 15 15 15 15 13 13 14 15 16
16 16 16 15 15 13 14 15 12 13 14 12 12 12 11 11 10 10 10 10 10 8 7 7 5 4 4 4 5 5 5 5 6 6 6 5 5 5 6 7 9 10 11 12 13 15 14 14 15 15 14 15 17 16 14 15 17 17 15 15 15 16
16 14 13 15 15 13 14 13 12 13 12 11 12 12 11 11 11 10 9 9 8 7 7 6 5 3 2 3 4 5 5 5 4 4 4 4 4 5 6 7 8 9 9 10 13 14 14 15 16 16 15 15 16 16 15 15 15 15 15 16 15 16
14 11 11 14 13 13 13 12 13 13 12 12 12 12 12 11 10 8 7 7 7 7 6 6 6 5 4 4 4 4 5 4 4 4 4 4 4 4 5 6 7 8 9 10 12 13 13 15 15 15 15 15 15 16 16 15 14 13 13 15 16 17
13 11 12 13 11 12 13 13 13 13 13 12 11 12 11 10 9 6 5 6 7 7 6 6 6 5 5 5 5 4 4 4 3 3 2 4 4 4 5 6 7 8 10 11 12 13 13 14 14 15 14 14 16 17 16 16 16 16 15 15 16 16
14 13 13 12 11 13 13 13 12 11 11 10 9 8 8 8 8 6 6 6 6 7 6 6 5 4 4 4 4 3 3 3 2 1 2 4 4 5 6 7 7 8 10 12 12 13 13 13 14 15 15 15 16 16 16 16 17 18 17 17 17 17
15 15 13 12 12 12 12 11 11 9 8 8 6 6 7 7 6 6 7 7 7 6 6 6 5 3 3 3 2 2 2 2 1 2 3 4 5 5 7 7 8 9 9 11 12 13 13 13 14 14 14 14 15 15 16 17 18 19 19 20 21 21
15 15 14 12 12 10 9 8 8 9 9 8 4 2 6 7 8 6 5 6 6 5 4 4 4 2 2 1 0 1 1 0 2 3 4 4 5 6 7 8 9 10 10 11 12 13 14 13 13 14 14 14 14 16 17 18 19 19 19 19 21 21
15 15 12 12 13 10 8 8 7 8 8 6 4 2 4 5 5 4 4 6 5 4 3 2 3 2 1 1 1 2 2 3 3 4 5 6 7 7 8 9 10 11 11 11 11 13 14 13 14 15 15 15 16 17 17 18 18 18 18 20 20 21
16 14 12 12 11 8 7 7 7 6 3 3 4 4 4 4 5 4 5 6 5 4 3 3 2 2 3 3 3 4 4 5 6 6 7 7 8 8 9 10 10 11 12 12 12 12 12 13 15 15 15 16 16 16 18 19 18 17 19 20 21 21
15 14 14 11 8 5 4 4 4 4 3 4 6 6 6 6 7 7 5 5 6 6 6 7 7 6 7 7 6 7 7 7 8 7 8 8 8 8 9 10 11 12 11 12 13 12 12 13 14 13 13 15 16 16 16 16 16 16 17 18 19 19
16 15 15 12 7 4 4 3 2 3 5 6 7 8 8 8 7 6 5 8 9 9 9 10 10 9 9 9 9 9 9 9 9 9 9 9 9 9 9 11 11 12 12 12 13 12 12 12 10 11 11 11 13 14 12 10 9 10 13 16 17 18
17 16 15 12 7 6 7 4 2 2 4 5 7 8 9 10 8 6 8 10 10 10 10 10 11 10 10 10 10 10 10 10 10 10 10 10 10 11 12 13 12 13 13 13 12 12 12 10 10 13 11 7 5 7 7 3 4 10 14 14 14 15
18 16 14 12 8 6 6 5 5 4 4 6 8 10 10 9 7 6 9 10 10 10 10 11 11 10 10 11 10 10 10 10 11 10 11 12 12 12 13 14 14 15 15 14 14 14 13 11 11 10 7 5 4 4 3 2 10 17 14 10 12 15
17 15 14 13 11 8 6 5 6 6 6 6 7 9 8 5 5 7 9 10 11 11 11 11 11 10 10 11 11 10 10 10 11 11 11 12 12 12 13 14 15 16 16 16 15 16 15 14 13 10 6 4 4 2 2 6 11 12 11 12 15 16
18 17 15 15 14 13 11 7 5 7 7 5 5 5 5 5 7 9 9 9 10 11 11 11 11 11 10 10 11 11 10 11 11 11 12 13 13 13 14 14 16 16 17 17 17 16 16 18 17 13 10 8 6 6 7 8 6 5 11 16 14 14
19 19 19 18 16 15 14 10 7 6 7 6 5 5 7 8 10 10 10 9 9 10 10 10 11 11 11 11 11 11 10 10 11 11 12 12 13 14 14 14 15 15 16 17 17 17 16 19 19 16 17 16 13 12 12 10 6 4 8 11 13 15
20 20 19 19 16 14 13 12 11 8 7 7 7 7 8 9 9 10 11 10 9 9 9 9 11 12 11 11 12 12 10 10 10 11 11 11 12 14 14 13 14 14 15 16 16 16 16 17 17 17 20 21 19 18 16 13 10 7 5 6 11 14
21 21 19 18 16 14 13 12 13 12 10 9 8 8 9 9 10 11 11 10 10 9 9 10 10 11 11 11 11 11 11 10 10 11 11 11 12 13 14 13 13 14 16 15 14 15 16 17 16 17 19 20 20 20 19 18 16 13 9 7 7 8
24 23 20 19 18 16 13 11 12 11 9 9 9 9 10 10 11 10 11 11 9 9 10 10 10 10 10 10 10 10 11 11 11 11 12 12 12 13 13 13 14 14 15 16 15 15 15 17 17 17 18 18 18 18 18 16 17 19 15 10 8 8
25 23 21 19 18 17 15 13 13 12 9 8 9 9 10 11 10 10 11 9 8 7 8 9 9 10 10 10 10 10 11 10 11 12 11 11 13 13 12 13 14 14 14 16 16 15 15 18 18 18 17 17 17 17 16 14 16 18 15 11 10 8
24 24 22 19 18 17 16 15 14 12 10 10 10 10 10 11 10 10 9 7 7 8 9 9 8 10 10 10 10 10 11 10 11 12 12 12 13 13 13 14 14 14 15 15 16 16 16 18 19 19 18 18 18 18 17 16 17 19 17 15 13 8
26 24 22 19 18 17 15 14 13 11 10 10 11 10 10 11 10 8 7 7 7 8 9 10 8 9 10 9 10 10 10 11 11 12 13 13 13 14 14 14 14 15 15 15 16 16 15 16 17 18 18 17 17 17 17 18 19 20 19 20 17 11
25 23 21 20 18 17 15 13 12 10 9 10 11 10 10 10 10 9 8 8 8 8 9 9 8 8 8 8 9 10 10 11 12 12 13 13 13 14 14 13 13 15 15 15 16 15 14 15 15 16 17 16 17 16 16 18 19 19 19 19 18 14
23 22 21 20 18 17 15 13 12 10 9 9 10 9 9 9 9 9 9 9 8 8 8 8 7 8 8 8 9 10 11 12 12 13 13 14 14 14 14 14 14 15 15 16 16 15 15 15 15 16 17 17 17 16 15 16 17 18 18 17 18 18
23 22 20 19 18 16 14 12 11 10 10 10 10 10 10 10 10 9 9 9 9 8 8 8 7 8 8 9 10 10 11 12 13 13 14 14 15 15 14 14 15 16 16 17 16 16 16 16 16 16 16 17 17 16 16 18 18 19 20 20 19 20
22 21 19 18 17 16 15 13 12 11 11 11 12 12 12 11 10 10 9 9 9 9 8 7 8 8 8 9 10 11 11 12 13 13 14 14 14 15 14 14 15 16 17 17 16 16 17 16 16 16 17 18 17 18 20 20 20 20 21 22 21 21
Wind_Direction
147 147 145 147 148 155 162 159 155 156 156 154 155 155 152 148 143 148 152 151 150 140 131 117 106 104 99 83 91 91 72 87 104 120 134 152 165 174 179 179 180 174 167 110 351 259 229 215 202 183 167 167 131 36 39 29 350 325 177 212 232 221
150 150 147 147 148 158 162 157 158 159 158 156 157 157 158 155 152 161 161 158 151 143 150 135 126 145 126 59 67 75 58 79 86 115 142 160 173 185 194 203 212 224 245 276 292 282 257 239 236 235 232 240 276 305 12 10 310 300 285 203 214 231
152 151 148 148 150 155 156 157 164 164 160 159 161 161 161 160 160 163 156 149 138 144 171 163 145 167 185 299 8 10 359 59 73 87 122 158 182 199 211 223 232 242 250 266 282 274 247 256 263 256 260 285 289 298 340 307 276 281 278 238 243 253
154 152 149 149 150 150 152 158 165 165 162 163 165 164 163 167 168 165 159 154 156 167 177 189 193 184 198 260 329 293 263 6 71 75 71 124 161 193 227 253 247 246 252 258 269 263 241 256 266 265 271 287 286 288 299 277 269 274 266 254 255 256
155 152 149 149 149 150 155 158 162 166 165 167 167 164 168 174 170 169 171 166 183 185 180 211 219 191 202 224 256 274 161 174 171 99 46 13 16 313 311 310 277 261 268 267 263 257 253 255 255 263 276 285 289 285 279 269 268 277 273 254 249 256
154 153 151 150 151 155 159 157 161 167 167 169 169 168 171 175 171 171 177 174 189 191 185 209 202 190 205 212 241 272 234 192 232 229 355 327 273 281 301 302 285 275 279 281 266 250 255 258 251 261 275 276 273 268 268 269 269 275 274 263 258 264
153 152 153 151 155 162 162 158 161 166 169 173 172 174 177 176 175 173 178 186 192 188 188 202 182 197 204 204 233 244 229 217 208 233 247 277 251 258 286 285 278 278 275 275 270 257 256 261 258 257 269 271 263 254 255 265 271 275 272 262 261 268
153 154 155 151 155 162 162 158 160 163 169 176 171 175 179 177 181 177 180 192 194 188 191 191 158 179 195 193 211 197 206 205 194 225 217 224 240 241 265 263 266 271 270 273 272 270 267 267 264 255 262 270 268 262 256 256 263 273 279 270 263 263
153 156 153 151 155 155 152 152 157 162 168 172 169 174 178 177 182 181 185 192 195 191 188 188 167 187 206 191 194 201 215 206 206 237 224 227 244 249 258 254 261 262 265 280 279 281 279 273 272 265 264 262 260 266 265 260 258 263 270 277 277 266
154 153 150 152 151 145 144 151 158 162 164 168 172 177 176 176 180 182 188 188 193 198 195 197 183 200 215 196 196 210 217 212 213 239 248 260 259 260 261 256 269 274 278 285 282 287 292 285 279 274 271 264 255 256 258 262 260 257 257 267 279 275
155 149 148 150 145 143 148 157 164 163 162 169 177 175 173 177 179 179 186 183 187 197 199 200 187 201 211 195 204 210 211 218 221 239 258 265 265 265 265 268 278 286 287 285 284 287 293 295 289 282 282 279 273 262 251 255 258 258 254 254 265 271
151 149 149 146 144 150 157 164 167 162 164 174 176 171 173 178 176 177 182 183 188 188 187 191 178 197 219 198 208 214 217 225 227 249 268 261 264 273 277 285 286 287 287 286 289 289 289 291 290 288 288 287 289 286 271 261 255 255 256 251 255 261
144 155 151 140 146 157 161 162 159 162 171 173 171 172 176 177 175 181 184 184 190 181 173 180 169 171 219 211 207 212 218 224 228 250 266 263 271 278 281 285 284 292 295 291 293 295 293 290 288 287 288 288 289 293 294 285 270 263 254 245 247 253
139 152 141 140 154 160 155 152 155 167 173 168 173 180 178 178 179 180 184 183 184 184 172 167 167 167 180 198 203 211 215 219 230 243 257 270 276 278 285 291 293 301 302 299 299 300 297 294 292 289 289 290 287 287 293 293 287 281 262 250 254 255
143 145 139 151 157 149 148 153 162 169 168 171 181 185 181 183 186 177 180 186 179 181 173 164 175 178 178 193 203 208 210 213 231 252 265 272 283 299 307 308 309 309 307 307 306 303 300 299 297 293 291 290 288 287 287 287 287 286 276 268 266 259
151 145 143 152 145 141 150 157 164 168 171 176 177 184 187 184 182 173 176 188 184 179 173 172 184 189 187 200 212 201 206 222 243 283 288 300 317 325 318 314 316 313 310 309 306 305 304 303 300 300 299 296 295 293 289 287 286 284 280 276 275 273
149 139 137 141 141 148 154 153 159 166 172 172 170 175 177 177 179 178 181 186 186 180 176 178 178 205 204 194 223 190 189 226 310 321 308 324 331 327 320 320 319 316 313 310 309 309 309 310 308 305 303 299 297 293 287 283 281 281 279 279 281 283
141 134 133 138 147 152 146 140 154 175 175 159 153 181 170 176 185 189 194 185 182 177 177 176 162 196 212 124 343 156 160 309 351 324 323 339 338 333 327 325 324 322 320 315 312 311 311 311 309 306 302 297 294 291 286 284 284 283 279 279 282 282
138 134 129 136 151 154 142 136 149 180 183 137 99 223 193 169 168 176 187 177 170 164 156 148 141 155 124 76 14 64 48 3 360 337 344 354 352 346 334 332 331 327 324 320 314 311 311 309 309 309 303 297 296 293 288 285 285 281 276 275 277 280
130 126 120 131 147 150 149 143 141 160 176 127 131 179 188 153 148 173 194 176 149 132 118 89 83 82 65 50 19 33 31 12 10 357 353 355 351 347 341 340 335 331 330 326 322 318 317 317 314 311 307 304 300 296 292 286 283 280 274 275 278 280
117 125 131 135 131 119 136 131 136 158 155 164 163 158 163 157 154 169 182 143 112 91 80 67 53 54 53 47 36 28 24 19 16 6 1 358 354 351 349 346 340 339 337 329 327 326 325 325 319 315 318 316 310 307 301 289 285 281 276 281 284 281
127 142 146 136 118 122 166 153 175 194 158 161 157 142 145 140 132 135 108 86 83 72 64 57 48 46 42 42 41 33 29 24 20 15 11 7 4 2 359 356 350 346 342 335 331 329 332 333 328 325 323 316 315 322 316 290 283 283 283 293 291 283
145 149 142 131 127 160 171 150 144 191 150 140 134 131 129 121 114 102 82 72 68 63 57 51 46 42 38 40 38 33 32 26 22 21 17 13 12 13 8 4 360 355 349 343 338 337 341 339 331 328 321 306 316 329 318 293 327 317 301 297 296 295
153 141 132 134 139 150 150 132 137 152 133 121 124 122 105 104 112 93 78 69 60 59 56 49 44 40 41 43 39 33 31 28 27 27 23 17 15 12 8 7 6 3 358 352 345 340 341 341 335 334 329 313 308 305 301 352 343 326 311 294 295 302
145 126 123 134 131 124 127 139 145 137 128 125 119 112 101 103 116 94 82 73 62 57 57 53 44 41 42 40 38 35 32 30 28 31 27 19 16 13 9 11 8 5 2 358 351 340 340 346 342 335 328 316 306 296 326 343 334 321 315 308 301 299
130 123 129 137 132 125 131 144 139 126 134 126 89 102 146 150 112 92 84 79 73 62 56 55 49 45 43 37 36 36 37 36 31 31 26 19 21 18 11 10 7 4 3 359 355 347 343 346 346 346 343 330 302 279 287 314 327 312 310 309 305 303
131 136 139 137 134 131 137 148 151 149 149 137 128 149 149 127 105 93 84 74 70 65 57 55 53 48 44 37 32 31 31 35 34 29 20 16 20 16 11 8 5 5 3 0 0 356 350 349 348 350 350 345 330 309 293 292 292 295 311 309 310 312
136 140 138 132 131 133 137 144 148 141 124 130 159 156 122 107 102 95 87 76 69 72 65 56 53 47 42 37 34 32 26 27 31 25 18 15 15 14 13 9 7 7 4 2 3 359 356 355 350 345 346 347 343 337 327 316 303 292 294 300 310 315
134 133 129 124 122 123 125 131 132 121 120 141 155 136 114 104 101 94 92 88 80 78 71 59 51 44 38 35 34 35 32 28 25 24 20 17 16 15 13 11 11 10 6 5 5 1 359 358 354 349 347 345 342 341 341 339 336 332 328 314 311 318
124 119 116 115 112 109 108 110 110 109 130 151 141 128 117 108 104 98 94 90 80 72 64 56 50 43 38 37 37 36 34 30 26 25 21 19 18 14 12 15 14 9 10 11 7 5 5 1 357 352 350 348 344 343 343 342 345 345 340 330 324 322
114 109 108 110 106 101 100 98 98 106 117 121 125 128 117 106 101 94 90 86 81 77 68 59 51 47 42 41 41 38 35 32 30 27 23 23 19 13 17 20 15 13 14 14 10 11 10 4 1 357 356 354 349 348 348 342 339 338 334 328 326 321
111 111 109 109 106 101 101 99 99 106 105 99 105 109 102 98 93 87 88 90 92 89 80 70 57 49 45 44 44 40 38 35 32 28 24 27 21 18 26 23 17 18 16 12 12 14 11 6 5 4 360 357 354 351 346 338 334 333 331 331 329 320
111 113 110 108 107 104 103 102 101 104 105 101 99 96 94 93 94 97 97 91 86 81 75 68 58 52 46 45 46 41 39 36 34 30 27 29 26 23 29 27 21 22 20 18 16 15 12 8 7 5 1 357 354 350 344 342 344 343 343 343 338 331
108 110 108 106 105 104 102 100 101 106 111 109 102 98 92 88 95 101 95 90 85 80 75 67 60 57 50 49 49 43 40 37 35 33 30 30 29 26 30 30 26 24 22 20 17 16 14 10 10 7 3 359 354 349 346 348 352 349 347 345 339 332
109 110 108 106 104 104 102 101 103 109 113 113 110 108 103 97 100 100 96 96 92 85 82 74 66 60 55 55 53 45 41 40 37 36 34 34 33 31 32 31 28 27 24 20 16 15 14 11 11 9 5 2 354 348 350 354 354 350 345 342 336 331
112 111 108 107 106 107 110 112 114 116 117 120 122 120 117 111 106 105 105 101 95 92 87 81 73 63 56 53 54 51 44 41 40 38 37 37 35 33 34 32 30 28 24 19 16 15 14 10 10 9 5 2 356 353 1 4 359 354 351 348 346 343
112 110 109 111 113 116 121 124 127 128 125 123 123 120 119 117 112 110 109 102 98 95 88 82 75 66 59 54 53 53 47 43 42 39 39 40 37 36 36 35 32 28 24 20 18 18 14 9 9 9 6 5 4 5 9 7 0 358 356 353 354 352